#timestamp,LO_Frequency,Hit,StdDev 
1516993215.5,286047002.8,N
1516993235.4,286046999.7,N
1516993255.2,286047002.1,N
1516993275.0,286046999.7,N
1516993275.9,286046999.7,N
1516993295.8,286047001.9,N
1516993315.6,286047001.7,N
1516993335.5,286047002.5,N
1516993355.3,286047002.5,N
1516993375.1,286047001.5,N
1516993395.9,286047001.5,N
1516993415.7,286047001.6,N
1516993435.5,286047001.5,N
1516993455.4,286047004.4,Y
1516993475.2,286047000.4,P
1516993495.1,286047000.9,N
1516993496.0,286047000.9,N
1516993515.8,286047002.6,Y
1516993535.6,286046998.7,P
1516993555.5,286046998.2,N
1516993575.3,286046998.8,N
1516993595.1,286046998.8,N
1516993615.9,286046998.9,N
1516993635.7,286046996.5,Y
1516993655.6,286047000.6,P
1516993675.4,286047002.1,N
1516993695.2,286047001.8,N
1516993715.1,286047004.0,Y
1516993716.0,286047004.0,P
1516993735.8,286047002.5,N
1516993755.7,286046999.7,N
1516993775.5,286046999.7,N
1516993795.3,286047000.0,N
1516993815.2,286047000.6,N
1516993835.0,286047000.0,N
1516993835.9,286047000.0,N
1516993855.7,286047000.5,N
1516993875.6,286046998.4,N
1516993895.4,286047000.5,N
1516993915.3,286047000.0,N
1516993935.1,286046998.5,N
1516993955.8,286047000.8,N
1516993975.7,286047002.6,N
1516993995.5,286047002.6,N
1516994015.4,286047002.2,N
1516994035.2,286046998.7,N
1516994055.0,286046999.3,N
1516994055.9,286046999.3,N
1516994075.8,286046998.6,N
1516994095.6,286046998.5,N
1516994115.4,286047001.1,N
1516994135.3,286046999.0,N
1516994155.1,286046997.1,N
1516994175.9,286046996.7,N
1516994195.7,286046997.9,N
1516994215.5,286046997.9,N
1516994235.4,286046996.9,N
1516994255.2,286046998.9,N
1516994275.1,286047001.2,N
1516994276.0,286047001.2,N
1516994295.8,286047001.1,N
1516994315.6,286047000.1,N
1516994335.5,286047001.9,N
1516994355.3,286047002.4,N
1516994375.1,286047000.5,N
1516994395.9,286047000.0,N
1516994415.7,286046998.3,N
1516994435.6,286046999.4,N
1516994455.4,286046998.1,N
1516994475.2,286046998.3,N
1516994495.1,286047000.8,N
1516994496.0,286047000.8,N
1516994515.8,286046999.2,N
1516994535.7,286046998.2,N
1516994555.5,286047001.1,N
1516994575.3,286047001.1,N
1516994595.2,286046999.3,N
1516994615.9,286046998.5,N
1516994635.7,286047000.7,N
1516994655.6,286047001.1,N
1516994675.4,286046999.4,N
1516994695.3,286046998.3,N
1516994715.1,286046999.4,N
1516994716.0,286046999.4,N
1516994735.8,286046998.8,N
1516994755.7,286047001.1,N
1516994775.5,286047001.2,N
1516994795.3,286047000.1,N
1516994815.2,286047000.9,N
1516994835.0,286047000.5,N
1516994835.9,286047000.5,N
1516994855.8,286047000.7,N
1516994875.6,286047000.7,N
1516994895.4,286047001.1,N
1516994915.3,286046996.5,Y
1516994935.1,286046999.2,P
1516994955.8,286046997.3,P
1516994975.7,286046997.7,N
1516994995.5,286046997.4,N
1516995015.4,286046996.5,Y
1516995035.2,286047000.7,P
1516995055.0,286047000.4,N
1516995055.9,286047000.4,N
1516995075.8,286047000.2,N
1516995095.6,286047001.5,N
1516995115.5,286047004.0,Y
1516995135.3,286047002.1,P
1516995155.1,286047001.6,N
1516995175.9,286047002.6,P
1516995195.7,286047001.3,N
1516995215.5,286047003.7,Y
1516995235.4,286046999.9,P
1516995255.2,286047000.6,N
1516995275.1,286047000.0,N
1516995276.0,286047000.0,N
1516995295.8,286046998.6,N
1516995315.6,286046999.8,N
1516995335.5,286047000.1,N
1516995355.3,286047004.4,Y
1516995375.2,286047004.0,P
1516995395.9,286047001.5,N
1516995415.7,286047000.9,N
1516995435.6,286046999.8,N
1516995455.4,286047002.4,N
1516995475.2,286047002.2,N
1516995495.1,286047001.9,N
1516995496.0,286047001.9,N
1516995515.8,286047001.3,N
1516995535.7,286047002.8,N
1516995555.5,286047001.6,N
1516995575.4,286047001.4,N
1516995595.2,286047003.3,Y
1516995615.0,286046999.8,P
1516995615.9,286046999.8,N
1516995635.8,286047000.6,N
1516995655.6,286047000.5,N
1516995675.4,286047000.9,N
1516995695.3,286047000.8,N
1516995715.1,286047000.4,N
1516995735.9,286047000.1,N
1516995755.7,286047000.5,N
1516995775.5,286047001.2,N
1516995795.4,286046998.7,N
1516995815.2,286046999.2,N
1516995835.1,286046997.7,Y
1516995836.0,286046997.7,P
1516995855.8,286046995.0,P
1516995875.6,286046995.5,N
1516995895.5,286046995.8,N
1516995915.3,286046997.9,N
1516995935.2,286046997.9,N
1516995955.9,286046995.0,N
1516995975.7,286046995.0,N
1516995995.6,286046996.8,N
1516996015.4,286046997.0,N
1516996035.2,286046999.0,N
1516996055.1,286046998.3,N
1516996056.0,286046998.3,N
1516996075.8,286046998.7,N
1516996095.7,286046998.3,N
1516996115.5,286046998.6,N
1516996135.3,286046998.1,N
1516996155.2,286047001.2,N
1516996175.0,286046998.2,N
1516996175.9,286046998.2,N
1516996195.8,286047001.2,N
1516996215.6,286046999.3,N
1516996235.4,286046999.1,N
1516996255.3,286046998.3,N
1516996275.1,286046998.2,N
1516996295.8,286046998.3,N
1516996315.7,286046998.2,N
1516996335.5,286046998.1,N
1516996355.4,286046998.5,N
1516996375.2,286046998.2,N
1516996395.0,286047000.7,N
1516996395.9,286047000.7,N
1516996415.8,286046998.2,N
1516996435.6,286046998.1,N
1516996455.5,286046999.7,N
1516996475.6,286047002.0,N
1516996495.4,286047001.7,N
1516996515.3,286047002.0,N
1516996535.1,286047002.8,N
1516996536.0,286047002.8,N
1516996555.8,286047000.6,N
1516996575.7,286046998.6,N
1516996595.5,286046998.5,N
1516996615.4,286047001.2,N
1516996635.2,286047000.3,N
1516996655.0,286047000.5,N
1516996655.9,286047000.5,N
1516996675.8,286047001.1,N
1516996695.6,286047000.6,N
1516996715.4,286047002.0,N
1516996735.3,286047002.4,N
1516996755.1,286047000.4,N
1516996775.9,286046998.2,N
1516996795.7,286046998.6,N
